SCP
0 0 0 0 0 0 0 0 0 0 0 0 0 0 0 1 1 1 1 1 1 1 1 1 1 1 0 0 0 0 0 0 0 0 0 0 0 0 0 0 0 0 0 0
0 0 0 0 0 0 0 0 0 0 0 0 0 0 1 1 1 1 1 1 1 1 1 1 1 0 0 0 0 0 0 0 0 0 0 0 0 0 0 0 0 0 0 0
0 0 0 0 0 0 0 0 0 0 0 0 0 1 1 1 1 1 1 1 1 1 1 1 1 0 0 0 0 0 0 0 0 0 0 0 0 0 0 0 0 0 0 0
0 0 0 0 0 0 0 0 0 0 0 0 1 1 1 1 1 1 1 1 1 0 0 0 0 0 0 0 0 0 0 0 0 0 0 0 0 0 0 0 0 0 0 0
0 0 0 0 0 0 0 0 0 0 0 0 1 1 1 0 0 1 1 1 0 0 0 0 0 0 0 0 0 0 0 0 0 0 0 0 0 0 0 0 0 0 0 0
0 0 0 0 0 0 0 0 0 0 0 0 1 0 0 0 0 1 1 1 0 0 0 0 0 1 1 1 1 1 0 0 0 0 0 0 0 0 0 0 0 0 0 0
0 0 0 0 0 0 0 0 0 0 0 0 0 0 0 0 0 0 1 1 1 1 0 0 1 1 1 1 1 1 0 0 0 0 0 0 0 0 0 0 0 0 0 0
0 0 0 0 0 0 0 0 0 0 0 0 0 0 0 0 0 1 1 1 1 1 1 1 1 1 1 1 0 0 0 0 0 0 0 0 0 0 0 0 0 0 0 0
0 0 0 0 0 0 0 0 0 0 0 0 0 0 0 0 1 1 1 1 1 1 1 1 1 1 0 0 0 0 0 0 0 0 0 0 0 0 0 0 0 0 0 0
0 0 0 0 0 0 0 0 0 0 0 0 0 0 0 0 1 1 1 1 1 1 1 0 0 0 0 0 0 0 0 0 0 0 0 0 0 0 0 0 0 0 0 0
0 0 0 0 0 0 0 0 0 0 0 0 0 0 0 0 1 1 1 1 1 1 0 0 0 0 0 0 0 0 0 0 0 0 0 0 0 0 0 0 0 0 0 0
0 0 0 0 0 0 0 0 0 0 0 0 0 0 1 1 1 1 1 1 1 0 0 0 0 0 0 0 0 0 0 0 0 0 0 0 0 0 0 0 0 0 0 0
0 0 0 0 0 0 0 0 0 0 0 0 0 0 1 1 1 1 1 1 1 1 0 0 0 0 0 0 0 0 0 0 0 0 0 0 0 0 0 0 0 0 0 0
0 0 0 0 0 0 0 0 0 0 0 0 0 0 0 1 1 1 1 1 1 1 1 0 0 0 0 0 0 0 0 0 0 0 0 0 0 0 0 0 0 0 0 0
0 0 0 0 0 0 0 0 0 0 0 0 0 0 0 0 1 1 0 0 0 0 0 0 0 0 0 0 0 0 0 0 0 0 0 0 0 0 0 0 0 0 0 0
0 0 0 0 0 0 0 0 0 0 0 0 0 0 0 0 1 0 0 0 0 0 0 0 0 0 0 0 0 0 0 0 0 0 0 0 0 0 0 0 0 0 0 0
0 0 0 0 0 0 0 0 0 0 0 0 0 0 0 0 1 0 0 0 0 0 0 0 0 0 0 0 0 0 0 0 0 0 0 0 0 0 0 0 0 0 0 0
0 0 0 0 0 0 0 0 0 0 0 0 0 0 0 0 0 0 0 0 0 0 0 0 0 0 0 0 0 0 0 0 0 0 0 0 0 0 0 0 0 0 0 0
0 0 0 0 0 0 0 0 0 0 0 0 0 0 0 0 0 0 0 0 0 0 0 0 0 0 0 0 0 0 0 0 0 0 0 0 0 0 0 0 0 0 0 0
0 0 0 0 0 0 0 0 0 0 0 0 0 0 0 0 0 0 0 0 0 0 0 0 0 0 0 0 0 0 0 0 0 0 0 0 0 0 0 0 0 0 0 0
0 0 0 0 0 0 0 0 0 0 0 0 0 0 0 0 0 0 0 0 0 0 0 0 0 0 0 0 0 0 0 0 0 0 0 0 0 0 0 0 0 0 0 0
0 0 0 0 0 0 0 0 0 0 0 0 0 0 0 0 0 0 0 0 0 0 0 0 0 0 0 0 0 0 0 0 0 0 0 0 0 0 0 0 0 0 0 0
0 0 0 0 0 0 0 0 0 0 0 0 0 0 0 0 0 0 0 0 0 0 0 0 0 0 0 0 0 0 0 0 0 0 0 0 0 0 0 0 0 0 0 0
0 0 0 0 0 0 0 0 0 0 0 0 0 0 0 0 0 0 0 0 0 0 0 0 0 0 0 -0 0 0 0 0 0 0 0 0 0 0 0 0 0 0 0 0
0 0 0 0 0 0 0 0 0 0 0 0 0 0 0 0 0 0 0 0 0 0 0 0 0 0 0 -0 0 0 0 0 0 0 0 0 0 0 0 0 0 0 0 0
0 0 0 0 0 0 0 0 0 0 0 0 0 0 0 0 0 0 0 0 0 0 0 0 0 0 0 0 0 0 0 0 0 0 0 0 0 0 0 0 0 0 0 0
0 0 0 0 0 0 0 0 0 0 0 0 0 0 0 0 0 0 0 0 0 0 0 0 0 0 0 0 0 0 0 0 0 0 0 0 0 0 0 0 0 0 0 0
Wind_Speed
4 3 1 0 1 1 2 5 6 6 7 7 8 8 9 9 9 10 9 9 9 8 6 6 6 5 6 5 5 5 5 4 3 3 2 2 1 1 1 1 0 0 0 1
3 3 2 1 2 1 1 1 2 3 2 3 4 5 7 8 10 9 9 9 9 8 7 7 6 6 5 5 5 5 5 4 3 3 2 2 2 1 1 0 0 0 0 1
2 4 4 3 2 2 1 2 3 4 4 4 5 6 7 8 8 8 8 8 8 8 7 7 6 7 6 5 4 5 4 4 3 3 3 2 2 2 1 1 0 0 1 1
1 2 3 8 3 2 3 2 2 3 4 6 7 5 4 5 6 7 7 7 7 7 6 6 5 5 5 5 5 4 4 3 3 3 3 2 2 2 2 1 1 1 1 1
3 2 4 6 3 1 3 2 2 5 6 5 7 7 4 2 4 5 6 6 6 6 6 6 6 6 5 4 4 4 3 3 3 4 3 3 3 3 2 1 1 1 1 1
3 3 5 5 5 3 6 2 2 5 6 5 5 4 2 1 4 5 4 4 5 5 5 5 5 5 6 4 4 4 4 3 3 3 3 3 3 3 1 1 1 1 2 2
3 3 5 5 5 4 3 5 2 3 4 3 3 5 4 3 4 5 5 5 5 6 5 4 5 6 5 4 3 3 3 2 2 2 2 3 2 1 1 1 0 1 1 2
3 2 5 5 4 2 4 2 2 3 3 4 4 5 5 5 5 5 5 5 5 5 4 3 4 5 5 3 2 2 2 2 1 1 1 1 1 1 1 1 0 1 1 2
5 5 4 2 1 2 4 5 3 2 2 6 6 5 5 4 4 4 4 4 4 5 5 3 3 4 4 2 2 2 2 2 1 1 1 1 2 2 1 1 1 1 1 1
2 1 2 3 4 4 5 4 3 4 4 5 5 5 5 5 4 4 4 5 5 6 5 3 2 3 2 2 3 3 2 2 1 1 1 0 1 1 2 2 2 2 1 2
1 1 3 4 4 4 5 6 6 6 5 5 6 5 5 5 4 4 4 4 4 5 4 3 2 3 2 2 3 3 1 1 1 1 1 0 1 1 1 3 3 3 3 2
4 4 2 2 1 3 5 4 4 5 4 4 4 5 5 5 4 4 4 3 4 4 4 3 2 2 1 1 2 3 1 1 1 1 1 1 0 2 3 1 1 2 3 3
3 2 2 2 1 2 3 3 3 4 4 4 3 4 5 4 3 4 4 4 4 4 3 3 2 2 1 1 2 2 2 1 1 1 1 1 1 1 1 4 4 2 3 4
2 3 2 1 0 2 4 4 5 5 5 5 4 3 4 4 3 4 3 3 3 3 3 3 3 2 1 1 2 1 1 1 2 1 1 1 1 1 1 0 2 3 4 4
1 3 3 2 1 3 4 6 6 5 4 4 4 3 4 4 3 2 2 3 4 4 3 3 2 1 1 1 1 1 0 0 1 1 1 1 0 0 0 0 0 1 2 3
2 4 5 4 3 3 4 6 6 4 4 3 3 2 3 4 3 2 2 3 4 3 3 2 2 1 1 1 1 1 1 2 1 1 1 0 0 0 0 0 1 1 1 1
4 3 3 4 3 2 3 4 4 4 4 4 3 2 4 4 4 3 2 2 3 3 3 3 2 2 1 2 2 1 0 1 2 1 0 1 1 1 1 1 1 1 2 2
5 5 5 5 5 3 2 3 3 4 4 4 3 3 4 4 4 3 2 2 3 2 1 3 3 2 1 1 1 1 1 0 0 0 1 1 1 1 1 2 2 2 2 2
3 4 4 4 4 3 3 4 3 3 3 3 3 3 3 3 3 3 3 3 3 2 2 2 3 2 1 1 2 1 1 0 0 0 0 1 1 1 1 2 2 2 2 1
2 2 3 2 2 3 3 3 3 3 2 3 2 2 2 2 3 3 3 2 2 3 2 2 2 1 1 1 1 1 1 1 0 0 0 0 1 1 2 2 2 2 2 2
2 2 2 2 2 3 3 4 4 3 3 3 3 3 3 2 3 3 3 1 2 1 2 3 1 1 1 1 1 1 1 0 0 0 1 1 2 2 2 2 2 2 2 2
1 2 2 2 3 3 3 3 3 3 3 3 3 3 3 3 2 1 1 2 2 2 2 1 1 1 1 1 1 1 0 0 0 1 1 1 2 2 2 2 2 3 3 3
1 2 1 2 3 3 2 2 3 4 4 4 4 4 3 3 3 3 1 2 1 2 2 1 1 1 1 1 1 1 0 1 1 1 2 2 2 2 2 2 2 2 2 2
1 1 2 2 2 3 2 1 2 3 4 4 3 4 4 3 1 1 2 3 3 2 1 1 1 0 1 0 0 0 1 1 1 2 2 2 2 2 2 1 1 2 2 2
2 2 2 2 2 2 2 2 2 2 2 2 1 2 2 3 3 2 2 3 4 3 1 1 1 1 0 1 1 1 1 2 2 2 2 2 2 1 1 1 1 1 1 1
2 2 2 2 2 2 2 2 2 2 2 2 0 1 1 1 2 2 2 3 3 3 2 2 1 1 1 1 2 2 2 2 2 1 1 1 1 1 1 1 2 2 2 2
2 2 2 1 1 2 2 2 2 1 2 3 1 0 1 1 1 2 2 2 2 2 2 2 2 2 2 2 2 2 2 2 1 1 1 1 1 1 2 2 2 2 2 2
Wind_Direction
225 232 142 296 271 248 207 196 187 213 192 206 198 175 163 151 146 145 152 152 156 156 154 149 150 155 154 155 158 156 150 151 163 163 155 150 142 139 127 143 155 154 110 325
332 327 18 356 333 283 278 225 170 141 216 216 156 139 141 145 145 157 162 160 156 152 151 155 157 157 156 158 162 155 157 170 174 164 163 168 168 154 135 106 7 92 119 296
288 313 18 317 237 209 265 311 157 168 206 153 120 141 155 154 153 159 159 155 157 160 164 164 162 159 164 166 157 155 163 170 173 171 172 181 178 152 161 185 169 118 259 280
160 29 232 244 253 167 119 39 74 122 135 139 137 143 133 133 147 154 152 153 158 159 159 159 156 155 154 150 150 155 160 170 178 174 177 180 177 191 205 199 196 218 244 268
129 185 269 296 331 26 128 18 16 111 112 110 106 81 53 64 129 148 151 158 162 163 159 156 156 152 138 142 148 154 170 185 192 184 184 188 198 212 214 196 214 231 231 235
138 168 226 259 299 318 92 28 336 111 122 135 106 104 225 168 111 114 121 133 142 139 131 140 151 145 138 146 154 174 190 194 195 188 191 197 202 204 200 189 218 236 251 244
159 204 248 271 304 28 111 227 264 133 141 137 139 175 180 140 116 115 123 130 131 128 130 145 150 141 141 146 175 194 182 171 173 179 191 192 198 194 180 191 229 264 266 276
153 182 252 301 17 109 199 196 110 107 122 114 115 122 124 125 124 124 125 123 124 123 120 115 125 130 133 155 180 146 132 128 141 160 177 151 156 183 189 179 180 288 303 312
181 204 250 309 124 167 137 110 96 96 117 119 115 119 118 119 123 125 132 122 112 114 107 93 102 125 137 163 132 108 106 114 99 86 103 138 159 183 186 180 201 254 265 279
64 322 319 24 51 76 100 107 104 100 106 113 120 128 122 124 120 111 108 113 114 111 108 105 95 102 125 139 126 115 126 136 135 125 118 49 175 188 196 203 208 227 240 264
37 304 10 22 42 70 75 74 73 69 78 99 118 123 124 121 121 121 115 110 117 122 124 123 107 93 95 121 122 116 123 140 138 144 161 182 273 248 216 217 207 210 221 223
219 220 181 241 331 67 92 95 95 87 63 63 111 130 124 123 129 127 126 121 119 122 124 122 110 98 80 90 116 125 134 179 184 180 184 174 146 352 356 327 301 267 244 244
194 199 173 184 106 74 99 113 105 103 105 91 79 115 122 125 131 128 129 133 137 141 141 133 118 102 85 88 98 120 160 188 192 188 181 184 192 168 340 344 347 325 306 291
140 114 90 65 103 98 110 107 92 83 87 94 89 97 108 111 118 122 131 143 137 130 128 127 120 118 127 103 90 74 158 164 158 179 184 185 193 194 193 244 326 329 320 314
127 135 151 140 101 108 114 110 101 96 91 86 86 94 110 116 121 126 127 122 114 111 115 117 114 112 89 94 93 69 55 237 176 168 185 192 185 128 18 314 290 315 338 339
115 106 111 114 129 132 124 127 129 134 125 105 95 106 131 134 130 124 121 127 129 139 146 137 156 203 136 111 92 75 27 31 59 141 160 169 166 177 225 238 265 296 294 294
128 127 125 139 161 151 146 156 155 149 137 122 118 124 125 121 116 118 124 135 147 154 158 160 186 203 157 127 118 119 108 46 51 62 203 223 216 218 220 225 243 267 277 287
158 166 161 158 170 174 166 162 160 152 149 143 136 132 138 145 155 165 155 129 115 113 163 177 177 172 155 136 119 116 116 123 105 229 253 239 239 227 222 225 240 255 275 298
152 157 151 148 163 171 172 167 165 155 151 146 146 162 165 165 166 158 141 128 131 155 233 203 168 149 141 145 114 119 123 145 191 226 245 275 283 258 232 232 243 254 262 276
145 146 149 149 153 160 170 177 166 156 158 156 143 135 138 152 150 139 128 137 185 207 203 168 148 150 195 204 116 140 152 158 172 241 253 249 243 252 253 248 244 249 256 261
143 136 130 137 157 168 172 175 171 176 170 150 143 153 157 159 149 140 131 136 275 222 155 140 147 197 229 178 108 108 109 97 136 225 231 241 252 250 251 263 265 260 260 261
143 143 144 148 149 161 175 165 165 166 152 143 142 143 137 139 143 141 166 197 217 159 133 132 163 196 170 122 108 104 104 124 258 253 252 250 248 250 254 261 263 268 268 264
151 143 140 140 151 161 158 145 154 154 153 158 158 161 163 172 174 165 213 244 192 145 134 177 175 135 100 93 116 130 166 265 276 274 273 264 254 252 258 268 271 276 277 277
145 138 145 143 125 120 131 178 165 153 156 162 172 175 167 160 181 214 197 191 183 161 166 183 159 127 24 13 191 209 243 265 274 280 280 278 279 275 266 259 274 296 300 295
164 151 134 128 132 154 174 173 140 137 139 135 153 172 172 169 175 194 181 174 170 164 183 207 187 182 259 254 245 246 248 253 264 281 287 285 287 287 279 269 262 278 287 287
155 152 162 168 172 167 157 146 149 156 140 133 154 192 174 165 160 168 174 180 183 182 194 217 215 208 223 235 242 245 246 257 268 269 266 263 268 274 276 274 278 271 263 262
132 141 135 123 136 142 140 141 147 165 156 144 142 191 177 171 173 185 189 184 183 193 206 220 223 226 227 222 223 232 243 247 240 233 242 243 256 273 273 263 254 255 256 260